Terminal Aerodrome Forecast
Issued by NWS

Home | Current Version | Previous Version | Graphics & Text | Print | Product List | Glossary Off
Versions: 1 2 3 4 5 6 7 8 9 10 11 12 13 14 15 16 17 18 19 20 21

000
FTUS43 KDDC 301045 AAE
TAFHYS
TAF AMD
KHYS 301045Z 3011/0106 30008KT 5SM BR BKN006 OVC011
     FM301500 32012G22KT P6SM OVC010
     FM301800 33012G22KT P6SM VCSH OVC020=

USA.gov is the U.S. government's official web portal to all federal, state and local government web resources and services.